Wind_Speed
16 17 17 17 16 16 19 22 21 21 22 20 18 19 20 21 22 23 24 25 27 29 30 32 34 35 37 39 40 39 37 35 34 34 34 33 33 33 33 33 33 34 34 35 36 37 38 39 39 40 41 41 41 41 41 40 40 39 39 39 38 38 38 39 41 43 40 35 35 34 34 36 37 37 39 39 39 38 37 36 36 39 43 46 48
15 17 16 15 14 13 16 21 20 20 21 20 18 19 21 22 22 23 25 27 29 30 32 33 35 36 38 40 41 39 37 35 34 34 33 33 33 33 33 34 34 35 35 36 37 38 39 40 40 41 41 41 41 41 40 40 40 40 39 39 39 38 38 38 39 40 38 33 32 33 33 35 36 36 37 38 39 40 41 39 37 37 38 41 46
15 16 16 14 13 13 16 20 21 21 20 19 19 20 21 22 22 24 26 28 29 31 33 34 35 37 40 42 41 38 36 34 34 33 33 33 33 34 34 35 35 36 36 37 38 39 40 41 41 42 42 42 41 41 41 40 40 40 40 39 39 39 39 40 40 41 40 35 34 36 36 35 36 36 37 38 39 41 43 43 41 39 39 38 41
15 16 16 14 13 14 17 20 22 21 19 19 19 20 21 22 23 25 27 29 30 32 33 35 36 39 41 42 40 37 35 34 34 33 33 33 34 34 35 36 36 37 38 39 40 41 42 43 43 44 44 43 42 41 40 40 39 39 38 37 38 38 39 39 40 42 42 39 37 37 37 36 36 37 39 41 41 42 42 43 42 40 40 39 39
15 15 16 14 13 15 17 20 22 20 18 19 20 20 21 22 23 25 27 30 32 33 35 36 38 40 42 40 37 35 35 34 34 33 33 34 35 35 36 36 37 39 40 41 41 42 43 44 45 45 44 44 42 41 40 39 39 37 36 35 36 37 37 38 39 39 39 38 35 34 35 36 37 38 40 41 41 40 39 39 39 39 38 39 39
14 15 16 15 15 16 17 19 20 19 18 19 19 20 21 21 23 26 28 31 33 35 36 38 39 41 40 37 35 34 34 33 33 33 34 34 35 35 36 37 39 40 40 41 42 43 44 44 45 44 44 43 42 41 40 39 38 37 35 34 35 35 35 36 37 37 36 35 35 34 35 37 38 38 39 39 39 38 37 37 37 36 35 36 37
14 15 16 16 16 16 17 18 19 18 18 19 19 20 20 22 25 27 29 32 34 36 38 39 40 39 37 35 34 33 33 33 33 33 34 34 35 35 37 38 39 40 41 41 42 43 43 43 44 44 43 43 42 41 41 40 39 37 35 34 35 35 34 34 34 34 34 35 35 36 37 38 39 39 39 39 38 37 37 38 38 35 33 32 33
14 15 16 17 17 17 17 18 18 17 18 19 20 20 21 23 26 28 30 33 35 38 39 39 38 35 34 33 32 32 32 32 33 33 34 34 35 36 37 37 38 39 40 41 42 42 43 42 43 43 43 42 41 41 40 40 39 38 35 34 35 34 32 32 32 32 33 34 36 37 39 39 40 40 39 39 39 38 37 39 40 37 33 30 29
15 16 16 17 17 17 17 18 17 17 18 19 20 21 22 24 27 28 31 34 37 39 39 37 34 32 32 32 31 31 31 32 32 33 33 34 35 36 37 38 38 39 40 41 41 42 42 42 42 42 41 40 39 39 39 39 38 37 36 34 34 34 32 31 31 32 33 35 37 39 41 41 41 40 40 40 40 40 39 38 38 37 35 31 27
15 16 17 17 17 17 17 17 17 16 17 18 20 21 23 25 27 29 32 36 39 39 36 33 32 31 31 30 30 30 31 32 32 33 34 35 36 37 37 38 40 40 41 41 41 41 41 41 41 41 40 39 38 38 38 37 36 36 35 34 33 33 32 32 32 33 34 36 39 41 42 42 42 41 41 40 41 42 42 39 36 34 34 32 27
14 16 17 17 18 17 16 16 16 16 17 19 21 23 25 26 28 31 34 37 39 36 33 31 30 30 30 29 30 30 31 31 32 33 35 36 36 37 38 39 40 41 42 41 41 41 41 41 40 40 39 39 38 38 38 37 36 34 33 33 33 33 33 33 33 34 35 37 39 41 42 43 43 42 41 40 41 43 43 38 33 30 31 31 27
14 16 16 17 17 17 16 15 15 16 18 20 22 24 26 28 30 33 36 38 36 32 30 29 29 29 28 29 29 30 30 31 33 34 35 36 37 37 38 39 40 41 41 41 42 42 41 40 40 40 40 39 39 38 38 37 36 34 32 32 33 33 34 35 35 35 37 39 40 42 43 44 45 43 42 43 42 43 43 37 31 27 28 29 26
15 16 16 17 17 16 15 14 15 16 18 21 23 25 27 29 32 34 36 35 32 29 29 28 28 27 27 28 29 29 30 32 33 34 35 36 37 37 38 39 40 41 41 41 42 41 41 40 40 40 40 39 39 39 38 38 38 35 33 32 33 33 33 34 35 35 36 39 41 43 43 45 47 46 46 47 45 42 40 36 30 26 25 25 24
16 16 16 16 15 14 13 14 15 17 19 21 24 26 28 31 33 34 33 31 29 28 27 27 26 26 27 27 28 29 30 32 33 33 34 35 36 37 38 39 39 40 41 41 42 41 41 41 41 40 40 40 40 40 40 40 40 39 36 34 33 33 33 33 34 34 35 36 38 40 41 43 47 48 48 48 45 40 37 34 28 24 23 21 20
18 17 16 15 14 13 13 14 16 18 20 23 25 27 29 31 32 31 29 28 27 27 26 25 25 25 26 27 28 29 30 31 32 33 33 35 36 36 37 38 38 39 39 40 41 41 41 41 41 41 41 41 42 42 42 42 42 41 39 36 34 34 33 34 34 34 34 34 35 36 38 40 43 46 47 45 41 37 35 32 26 22 20 18 18
19 17 15 15 14 13 14 15 17 19 22 24 26 28 29 30 29 28 27 26 26 25 25 24 25 25 26 27 28 28 29 30 31 32 33 34 35 36 36 36 37 38 39 40 40 41 42 42 41 41 42 42 42 43 44 44 44 43 42 38 36 35 34 33 32 32 32 33 34 35 35 36 38 41 44 45 41 36 32 29 23 19 17 16 17
17 15 15 15 14 14 14 16 18 21 23 25 27 28 28 27 26 26 25 25 25 24 24 24 25 25 26 27 28 28 29 30 31 32 33 33 34 35 35 36 36 38 38 39 40 41 41 42 41 42 42 42 43 44 44 45 45 45 44 41 37 36 34 32 30 30 31 32 34 35 34 34 35 37 41 44 41 35 30 26 21 17 14 12 11
15 14 15 14 13 14 15 18 20 22 24 26 26 26 26 25 25 25 25 24 24 23 23 24 25 26 26 27 28 28 29 30 31 32 32 33 34 34 35 36 37 37 37 38 39 40 40 41 41 42 42 43 44 45 45 46 46 46 45 43 39 36 34 33 32 32 32 32 32 32 32 32 33 33 37 42 39 33 28 24 18 13 9 4 2
14 14 14 13 12 14 16 19 21 23 24 24 24 24 24 24 24 24 24 23 22 22 23 24 24 25 26 27 28 29 30 30 31 32 33 33 34 35 35 36 37 37 37 37 39 39 40 40 41 41 42 43 44 45 46 47 47 47 46 43 40 37 35 34 34 34 35 34 33 32 31 32 32 30 33 39 38 29 23 19 13 9 8 6 8
13 13 12 11 13 15 17 20 21 22 22 22 23 23 23 24 24 23 22 22 22 22 22 23 23 24 26 27 28 29 30 31 32 32 33 34 34 35 36 37 37 37 38 39 39 39 39 40 41 42 42 44 45 45 46 47 47 46 44 42 41 39 37 36 34 34 34 35 34 33 31 30 30 28 29 36 35 24 17 13 12 14 13 12 14
11 11 10 11 13 16 18 19 20 20 20 21 22 23 24 23 22 21 21 21 21 21 22 22 23 24 26 27 28 29 30 31 32 33 33 34 35 36 37 37 37 38 39 39 40 39 39 40 41 42 43 44 45 45 46 46 45 43 42 41 40 39 37 35 33 32 33 34 33 31 28 28 28 25 24 30 32 24 15 13 17 19 17 14 13
9 9 10 12 14 16 17 18 18 18 19 20 22 23 23 21 20 20 20 20 20 20 21 22 23 24 25 27 28 29 30 31 32 33 33 34 35 36 37 38 38 38 38 39 39 39 39 40 41 42 43 44 44 45 45 45 43 40 39 39 38 36 35 34 32 31 32 33 32 29 27 28 28 26 23 24 28 25 17 12 13 15 14 11 7
8 9 10 12 14 15 15 16 17 18 19 20 22 22 21 19 19 18 18 18 19 20 21 22 23 24 25 27 28 29 30 31 32 32 33 34 35 36 37 37 38 38 39 39 39 39 39 39 40 42 42 42 43 43 43 44 42 39 37 37 36 34 33 32 30 29 30 32 31 28 26 27 29 27 25 25 26 25 20 14 13 13 12 9 7
8 9 10 12 13 14 14 15 16 17 19 20 21 20 18 18 17 17 17 17 18 19 20 21 23 24 25 27 28 29 29 30 31 32 33 34 35 35 36 36 37 38 38 38 38 38 39 39 40 41 41 41 42 42 42 42 41 38 36 36 35 33 31 30 29 28 28 29 30 29 27 28 29 29 28 27 25 23 19 16 15 14 12 10 8
8 9 10 11 12 12 13 14 16 17 19 19 19 17 17 16 16 16 16 17 18 19 20 21 23 24 25 27 27 28 29 30 31 32 33 34 34 35 35 36 37 38 38 38 38 38 38 39 39 39 40 40 40 40 40 40 40 37 35 35 35 33 31 29 29 29 29 30 30 30 30 29 29 29 28 26 23 19 16 14 13 12 11 11 9
8 9 10 11 11 12 13 14 15 17 18 17 16 15 15 15 15 15 15 16 17 18 20 21 22 24 25 27 28 28 29 31 32 33 33 34 34 34 35 35 36 37 37 37 37 37 38 38 38 38 39 39 39 39 39 38 38 36 34 33 35 34 32 30 29 30 31 31 31 31 31 31 29 28 27 25 21 17 15 13 11 8 7 8 7
8 9 10 10 10 12 13 14 15 16 16 15 14 14 14 14 14 14 14 15 16 18 19 20 22 24 25 27 28 29 30 31 32 33 33 33 34 33 33 34 35 36 36 36 37 37 38 38 38 37 37 36 36 36 37 37 37 37 34 33 34 35 34 32 31 30 31 32 32 31 31 30 29 28 26 24 22 18 15 12 11 9 8 7 5
8 9 9 10 10 12 12 13 14 15 15 14 13 13 13 13 13 13 13 14 15 17 19 20 22 24 25 27 28 29 30 31 31 32 32 33 33 33 33 34 35 36 37 37 37 38 38 38 37 36 35 35 35 34 35 36 37 37 36 34 32 33 34 32 30 29 30 31 31 31 30 29 28 28 26 25 23 20 16 13 10 9 9 8 7
9 9 9 10 11 11 12 13 14 14 13 12 12 12 12 12 12 12 13 14 15 17 19 20 22 24 26 27 28 29 30 31 32 32 33 34 34 34 35 36 37 37 38 38 37 38 38 38 37 36 35 35 35 35 35 36 36 37 37 36 33 32 32 32 31 29 29 29 30 30 30 29 29 27 25 24 23 22 19 15 13 11 9 7 7
9 9 9 10 11 11 11 12 13 13 12 12 11 11 10 10 11 11 12 14 15 17 19 20 22 24 25 27 28 29 31 32 32 33 34 35 35 35 36 37 37 37 38 38 37 37 38 37 37 37 36 36 36 36 36 36 37 37 37 38 36 33 32 32 32 32 31 31 30 31 31 30 30 29 25 23 22 22 20 18 16 14 11 7 6
10 10 10 10 11 11 11 12 12 12 11 11 10 9 9 9 10 11 13 14 16 17 19 20 22 24 25 27 28 29 31 32 32 33 34 35 35 36 36 36 36 36 37 37 37 37 37 37 37 36 36 36 36 36 36 36 37 37 37 37 38 36 33 32 32 33 33 32 31 31 31 32 32 31 28 24 22 22 20 19 18 17 16 11 8
11 10 10 10 11 11 11 12 12 11 10 10 8 7 7 9 10 12 13 15 16 18 19 21 22 23 25 26 28 29 30 31 32 33 34 35 35 36 35 35 35 36 36 36 36 37 37 37 37 36 36 36 36 36 36 36 36 37 37 37 37 38 36 34 33 33 34 33 32 31 31 32 33 33 30 26 23 22 21 20 19 18 18 15 12
12 11 11 11 11 11 11 12 12 11 10 8 7 6 7 9 11 13 14 16 17 18 19 20 22 23 24 26 27 29 30 31 32 33 34 35 35 35 35 35 34 35 35 35 35 36 36 36 36 36 36 36 36 36 36 35 35 35 36 36 37 37 37 36 33 32 32 33 33 32 31 31 32 33 30 27 25 23 22 22 21 18 17 15 13
14 12 12 11 11 12 12 12 11 10 9 8 6 6 8 10 12 14 15 17 18 18 19 20 21 22 24 25 27 28 30 31 32 33 33 34 35 35 35 35 35 35 35 34 34 35 35 35 36 36 36 36 36 36 36 35 35 34 34 35 35 35 36 36 34 32 31 32 32 32 31 30 31 32 30 27 26 26 24 23 22 20 18 17 15
15 13 12 12 12 12 12 12 12 10 9 8 8 8 10 12 13 15 16 17 18 18 19 20 21 22 23 24 26 28 29 31 32 32 33 34 34 34 34 34 34 33 33 33 33 34 35 35 35 36 36 36 36 36 36 36 35 35 34 34 34 34 34 35 35 34 32 31 30 31 31 30 29 30 29 27 27 28 27 25 24 24 22 21 18
17 15 13 13 13 13 12 12 12 11 9 9 9 10 11 13 14 14 15 17 18 18 18 19 20 21 22 24 25 27 29 30 31 32 32 33 33 33 33 34 33 32 32 32 33 33 34 35 35 35 35 35 35 35 36 36 35 35 34 33 33 33 33 34 35 35 33 31 29 30 30 29 28 28 27 26 27 27 26 24 24 24 24 23 22
18 16 15 14 14 14 13 13 12 12 10 10 10 10 11 12 13 14 15 16 17 18 18 19 20 21 22 23 25 26 28 30 31 32 32 32 32 32 33 33 33 32 31 32 32 32 33 34 34 35 35 35 35 35 35 35 35 34 33 33 33 33 33 33 34 34 34 31 29 28 29 29 28 27 25 24 25 24 22 21 22 23 23 23 23
20 18 16 15 15 15 14 13 13 12 11 11 11 11 11 12 12 13 13 15 17 18 19 19 19 20 21 22 24 25 27 29 30 31 32 32 32 32 33 34 33 32 31 31 31 32 32 33 33 34 34 35 35 35 34 34 34 34 33 32 31 31 31 31 31 32 33 32 29 27 27 28 28 26 25 24 24 22 19 18 20 21 22 24 25
21 19 18 17 16 16 15 14 14 13 13 12 12 11 11 12 12 12 12 14 16 18 19 19 19 20 21 22 23 25 27 28 30 31 32 32 32 32 33 33 33 33 31 30 30 31 31 31 32 33 34 34 34 34 34 34 34 34 33 32 31 30 29 29 30 30 30 31 30 28 27 26 27 26 25 24 24 22 18 16 17 18 19 22 25
22 21 19 18 17 17 16 15 14 14 14 14 13 13 13 12 12 12 12 13 16 18 19 19 20 20 21 22 23 24 26 28 29 31 32 32 32 32 33 33 33 32 31 30 30 30 30 30 31 32 33 33 34 34 34 34 34 33 33 33 32 30 29 29 29 29 29 30 30 29 27 25 25 25 24 23 23 22 19 17 17 17 17 19 22
24 23 21 19 18 18 17 16 15 15 16 16 15 14 14 13 13 13 13 14 16 18 19 19 20 20 21 22 23 24 25 27 28 30 31 32 32 32 32 32 32 32 31 30 29 29 29 29 30 31 32 33 33 33 33 33 33 33 33 32 31 30 29 29 28 28 27 28 29 29 28 25 23 23 23 22 22 22 21 19 17 17 17 17 18
25 24 22 21 19 19 17 17 16 16 16 16 16 16 15 15 14 13 14 15 16 17 18 19 20 21 21 22 23 24 25 26 27 29 30 31 32 32 32 32 32 32 31 30 29 29 29 29 29 31 31 32 32 32 33 33 33 33 33 32 31 30 29 28 27 27 26 26 27 28 28 27 24 23 23 23 22 22 21 20 18 17 17 16 16
26 26 24 22 20 19 18 18 18 17 17 17 17 17 16 16 15 15 14 15 16 16 18 20 21 21 21 22 23 24 24 25 27 28 30 30 31 32 32 31 31 31 31 30 29 29 29 28 28 30 31 32 32 32 32 33 33 33 33 32 31 30 30 28 27 26 25 25 26 26 27 27 25 23 22 23 23 22 21 20 19 19 17 16 15
28 28 26 24 21 20 20 19 18 18 18 18 18 18 17 17 16 16 16 16 16 16 17 19 21 21 21 22 23 24 24 25 26 28 29 30 31 31 31 31 31 31 31 30 29 29 29 28 28 29 30 31 32 32 32 33 33 33 33 32 31 30 29 28 27 26 25 24 25 25 25 25 26 25 23 22 22 23 22 21 21 21 20 17 16
30 30 28 26 23 21 20 20 19 19 19 18 18 18 18 18 18 18 17 17 16 16 17 18 20 20 21 22 23 23 24 24 26 27 29 30 30 31 31 31 30 30 31 30 29 29 28 28 27 28 29 30 31 32 32 32 32 32 32 32 31 30 29 28 27 26 25 24 24 25 24 24 26 26 25 23 23 23 24 23 22 21 21 20 19
32 31 30 28 25 22 21 21 20 20 19 19 19 19 19 19 19 19 18 17 16 16 16 18 19 20 21 22 23 23 23 23 25 27 28 29 30 30 30 30 30 30 30 30 29 29 28 27 27 27 28 29 30 31 32 32 32 32 32 32 31 30 29 28 27 26 25 24 24 24 24 24 25 26 26 26 25 24 24 24 24 22 21 22 23
34 33 32 29 26 24 22 22 21 20 19 19 19 19 19 19 19 19 18 17 16 15 16 18 19 19 20 22 24 24 23 23 24 26 27 28 29 29 29 30 30 30 30 30 29 28 27 27 26 26 26 27 29 30 31 31 31 31 31 31 31 30 29 28 27 26 25 25 24 24 24 25 25 25 25 25 26 25 24 24 24 23 22 22 23
35 35 33 31 28 26 24 23 22 21 20 19 20 20 20 19 19 19 18 16 15 15 16 18 19 19 20 22 23 24 23 22 23 25 27 27 28 28 28 29 30 30 29 29 29 28 27 26 26 25 25 26 27 29 30 30 31 31 31 31 30 30 29 28 27 27 26 25 25 24 24 24 24 24 24 24 25 26 25 24 24 23 23 23 23
36 36 35 33 30 28 25 24 23 22 21 21 21 20 20 19 19 18 17 16 14 14 15 17 19 20 20 21 22 22 23 22 23 25 26 26 26 26 27 28 29 30 29 29 28 27 27 26 25 24 24 25 26 27 28 29 30 30 30 30 30 29 29 28 27 27 26 25 25 24 24 24 23 23 23 24 24 25 25 25 24 23 23 22 23
37 37 36 34 32 29 27 25 24 23 22 22 21 20 19 19 19 18 17 16 15 14 15 17 19 20 20 20 20 21 22 23 24 25 25 25 25 25 26 27 28 29 29 28 28 27 26 25 25 24 24 24 25 26 27 28 29 29 29 29 29 28 28 27 27 26 25 24 24 24 23 23 23 23 23 23 23 23 24 24 24 23 23 22 22
38 39 38 36 33 31 29 27 26 25 24 22 21 20 20 19 19 19 18 16 15 15 16 17 18 20 21 21 20 20 21 24 25 25 24 24 24 25 25 26 28 29 29 28 27 26 26 25 24 24 23 23 24 25 26 27 28 28 28 28 28 28 27 27 26 25 24 24 23 23 22 22 22 22 22 22 22 22 22 23 23 23 23 22 21
Wind_Direction
27 24 22 21 23 24 17 9 1 356 356 358 357 356 357 357 356 354 354 354 353 352 353 352 350 347 344 340 337 335 333 331 330 330 331 331 331 330 330 329 328 328 328 328 327 326 325 324 324 323 323 323 322 322 321 320 319 318 316 314 312 310 309 307 307 308 310 311 310 310 309 307 307 305 304 302 299 296 292 287 280 273 266 262 259
19 18 13 9 14 17 9 4 359 352 351 352 352 353 353 353 351 349 348 348 347 347 347 347 344 342 339 335 333 332 330 330 330 331 331 331 332 331 330 330 329 329 329 328 328 327 326 326 326 326 326 326 326 326 325 324 323 321 319 317 316 316 314 314 313 313 315 315 313 311 310 308 306 304 302 301 300 297 294 289 284 279 272 265 261
13 11 3 356 1 3 358 358 358 352 348 347 349 351 351 348 346 345 344 343 343 343 342 341 338 336 333 331 329 329 328 329 331 331 332 333 332 332 331 331 331 331 330 330 329 329 328 329 329 330 330 330 330 330 328 327 326 324 323 322 321 321 320 319 318 318 319 321 319 315 313 310 307 306 305 304 303 300 297 293 288 282 276 270 264
6 3 356 352 358 357 351 353 354 349 346 346 349 351 349 346 343 342 340 339 339 339 337 335 333 331 329 327 327 328 329 331 332 333 333 333 333 333 332 332 332 332 332 332 332 332 332 332 333 333 333 333 333 332 330 328 327 326 324 323 323 323 322 321 319 318 318 320 319 315 313 311 310 309 309 307 305 302 298 295 292 286 277 270 265
357 352 349 348 349 348 347 350 349 346 346 348 348 349 347 344 340 338 338 338 337 335 333 332 329 327 326 325 326 328 330 332 332 333 334 333 334 334 333 333 334 334 334 334 334 335 335 335 335 335 335 335 334 332 331 329 328 326 323 323 324 324 323 321 320 318 317 318 319 317 316 315 314 314 312 309 307 304 299 295 294 292 283 270 263
341 339 342 341 339 340 343 346 345 344 346 347 346 346 344 340 338 339 340 339 337 334 331 328 325 324 324 325 327 330 331 332 333 334 334 334 334 334 335 336 336 336 336 336 337 337 337 337 336 336 336 335 334 333 331 330 329 327 324 323 324 324 323 322 320 319 319 321 323 323 322 321 319 317 315 313 311 309 304 297 295 296 292 277 262
323 325 332 333 332 334 339 343 342 341 341 341 342 342 339 338 339 340 338 337 335 333 330 326 324 323 324 326 329 331 332 332 333 334 334 334 334 335 337 337 337 337 338 338 339 339 339 338 337 337 337 336 335 334 332 331 329 328 325 323 325 325 323 322 322 322 324 326 326 326 326 325 323 320 317 315 314 314 311 303 296 294 293 284 267
312 315 323 327 326 329 334 339 338 335 335 337 338 336 334 335 336 334 333 333 332 330 327 325 323 324 325 328 330 331 332 333 334 334 334 335 336 337 338 338 338 339 340 340 340 340 339 339 339 339 338 337 336 335 333 331 330 329 326 324 326 327 324 323 325 328 330 330 329 329 328 326 324 321 319 316 314 314 312 307 301 294 290 284 272
304 307 316 323 324 326 332 333 330 329 333 335 335 332 331 332 330 328 329 329 328 327 326 324 324 325 327 330 331 332 333 334 334 334 335 336 338 338 338 339 340 341 341 341 341 340 340 341 341 340 339 338 337 335 333 332 331 330 327 325 327 330 329 326 328 332 334 335 334 333 332 329 327 324 321 319 316 313 310 306 301 294 287 282 273
298 303 314 320 321 324 327 324 320 325 332 334 332 330 329 328 324 322 324 325 325 325 325 324 325 327 330 331 332 333 333 334 334 335 337 338 339 340 340 341 342 342 342 342 342 342 342 343 342 341 339 338 337 337 336 334 333 331 329 327 328 332 332 330 332 335 337 336 335 336 336 335 333 329 324 320 317 314 310 306 300 292 283 278 273
300 305 315 317 317 320 320 314 314 324 330 330 329 328 326 322 318 318 321 322 323 324 324 325 328 330 331 332 333 334 334 334 336 337 339 340 341 341 342 343 343 343 342 342 342 344 344 344 343 341 340 340 340 340 339 337 334 332 331 331 332 335 336 334 335 336 336 335 336 338 339 339 338 335 329 324 319 316 314 311 303 290 278 274 272
304 308 313 313 315 315 310 308 315 324 327 326 326 324 320 318 316 317 319 321 323 324 325 328 330 332 333 333 334 334 335 336 339 340 341 341 341 342 343 343 344 343 343 343 343 345 345 345 344 343 342 342 342 342 341 339 338 336 336 337 338 339 339 338 337 337 334 334 336 338 339 339 339 339 334 328 324 319 317 315 308 292 275 269 269
304 307 309 309 308 305 302 307 317 322 323 323 322 320 318 317 316 317 319 321 323 325 328 330 332 333 333 334 335 336 337 339 341 341 341 341 342 343 344 344 344 344 343 343 344 345 346 346 346 345 345 344 343 343 343 342 342 341 340 341 342 342 341 340 339 338 335 334 335 336 336 336 337 337 334 330 328 323 318 314 310 297 278 266 262
303 306 306 303 299 296 300 313 321 323 322 321 320 317 316 315 316 318 320 323 325 328 330 332 333 334 334 335 336 338 339 341 341 341 341 342 344 345 345 345 345 344 344 344 345 346 346 347 348 348 346 346 346 346 346 345 345 344 344 344 344 343 342 340 339 339 338 337 334 332 332 332 333 334 334 332 329 324 319 316 312 300 284 269 257
303 305 301 295 292 296 308 321 325 324 322 319 316 314 314 316 317 320 322 325 328 330 332 334 334 334 335 337 338 340 341 341 341 342 343 344 345 345 346 346 345 344 345 346 346 346 348 349 350 349 348 348 348 348 348 347 346 346 346 346 345 344 343 341 341 341 341 340 336 332 330 330 331 332 333 333 329 325 323 324 319 305 289 270 252
302 300 293 289 292 303 317 326 325 322 319 316 314 314 316 318 320 322 325 328 331 332 334 335 335 336 337 339 340 341 342 342 342 343 345 345 346 346 346 345 345 346 348 348 348 348 349 350 351 351 351 351 350 350 350 349 348 346 346 347 347 345 344 343 342 342 342 341 340 337 334 332 332 332 332 330 327 325 327 329 323 308 290 269 252
296 290 285 286 296 311 323 325 322 318 315 313 314 316 318 320 323 326 329 331 332 334 335 336 337 338 339 340 341 342 342 343 344 345 346 346 347 347 346 346 347 349 350 350 349 350 351 351 352 352 353 352 352 351 351 350 349 348 346 347 348 346 344 343 344 344 345 344 343 339 336 334 333 333 333 330 326 324 328 330 324 308 295 283 265
285 282 282 289 303 318 323 321 317 314 313 314 316 317 319 323 327 330 331 333 334 335 337 338 339 339 340 341 342 343 344 345 347 347 347 348 348 348 347 347 350 351 351 351 352 352 352 353 353 353 354 354 353 353 352 351 350 349 347 348 349 347 345 345 346 347 347 347 343 338 335 335 334 334 338 337 332 330 333 333 330 326 332 332 224
279 278 283 295 312 320 319 315 313 313 314 315 317 318 322 328 331 331 332 334 335 338 340 340 339 340 341 342 343 344 346 347 348 348 348 349 349 348 348 350 351 352 353 354 354 354 354 354 354 355 356 356 355 354 354 352 351 350 349 349 348 348 348 350 350 349 348 347 345 340 335 335 335 338 344 345 343 344 345 340 346 13 37 75 117
276 278 289 306 316 316 313 312 312 314 315 316 317 321 327 331 331 332 333 336 338 340 340 339 340 341 342 343 345 346 348 348 348 349 350 350 349 349 350 351 352 353 354 355 355 355 356 355 355 356 357 357 357 356 355 354 353 352 350 349 350 350 351 352 351 349 347 348 348 344 337 334 337 341 348 352 354 1 8 13 40 63 71 86 102
276 286 303 312 312 311 310 311 313 315 315 317 320 326 330 331 331 333 336 338 339 339 339 340 342 343 344 345 347 349 349 349 350 351 351 350 349 350 351 352 353 354 356 356 355 355 357 357 357 357 358 358 358 357 356 355 354 353 352 351 352 351 350 350 351 349 348 350 352 349 340 335 339 345 353 359 1 6 20 41 57 67 75 86 102
288 301 309 310 309 309 310 311 314 315 316 320 324 328 330 331 332 335 338 339 339 339 341 343 344 345 345 347 349 350 350 351 351 351 351 350 350 351 352 353 354 356 356 356 355 356 358 358 358 358 358 359 358 357 356 356 355 354 354 354 353 351 349 349 350 350 350 352 355 354 346 339 342 351 357 5 11 12 17 30 42 54 71 82 84
300 306 307 307 308 308 310 312 314 315 319 323 326 328 330 332 335 338 340 340 340 342 344 345 346 347 348 350 351 352 352 352 352 352 352 351 350 351 353 354 355 356 356 356 356 357 359 359 360 360 359 359 358 357 357 357 356 355 356 356 355 353 351 350 351 353 354 354 355 358 355 346 347 355 0 7 16 20 25 38 42 41 53 56 30
303 305 306 307 308 308 310 312 314 318 321 324 325 328 331 334 338 341 342 342 343 346 347 348 349 349 351 352 353 353 353 353 353 353 352 351 351 352 354 355 356 356 356 356 356 357 359 360 0 1 359 358 358 357 358 358 357 356 357 358 358 356 353 353 355 358 359 358 356 359 2 358 355 358 1 6 13 15 20 39 50 44 39 36 25
304 305 307 307 308 308 309 312 316 320 322 323 325 329 334 338 342 345 346 346 347 349 350 351 352 352 354 354 354 354 355 355 355 354 353 352 353 354 355 356 356 356 356 356 357 358 359 0 1 1 359 357 357 357 358 360 360 358 357 360 1 360 358 358 0 2 3 4 2 1 4 5 2 1 360 1 6 8 8 21 42 52 49 40 33
305 305 306 307 307 307 310 314 318 320 321 322 326 332 338 343 346 349 351 351 351 353 355 355 355 356 357 356 356 356 356 357 356 355 354 353 354 355 356 356 356 357 357 357 358 359 359 0 1 1 358 357 357 357 357 1 3 1 359 0 3 4 2 2 4 6 6 8 8 6 4 5 4 3 1 358 359 4 6 7 16 31 36 28 22
305 305 306 306 307 309 312 316 318 319 320 322 329 336 343 347 351 353 356 357 356 358 360 359 360 0 360 359 358 358 358 358 357 356 354 354 355 355 357 357 357 358 358 358 359 359 359 0 1 0 358 356 357 357 358 360 4 5 3 3 5 6 6 5 5 7 8 9 11 11 8 5 3 2 3 3 1 1 5 6 5 6 4 359 350
306 306 306 307 309 310 313 316 317 317 320 325 333 341 347 351 356 0 2 1 1 2 3 3 3 3 2 1 359 359 359 359 357 356 355 355 356 357 358 358 359 359 359 359 359 359 0 1 0 359 357 356 356 358 359 360 4 7 7 7 7 8 9 9 8 8 9 9 11 12 11 8 5 2 2 7 8 6 5 7 11 13 8 356 342
307 307 308 307 308 310 313 315 314 316 321 329 337 345 350 356 2 6 6 5 4 4 5 4 5 4 3 2 1 1 1 359 357 357 356 356 358 359 360 360 360 359 359 359 359 359 0 1 359 358 358 357 357 358 360 2 4 7 8 9 9 8 9 11 12 12 11 10 10 11 12 12 10 5 3 6 11 11 10 9 11 15 13 359 344
309 307 306 305 307 312 313 312 312 316 323 331 339 347 354 1 5 6 6 5 4 4 4 4 4 4 4 3 2 2 1 360 358 357 357 358 359 0 1 1 0 360 359 359 359 359 359 359 359 359 359 358 358 359 0 2 4 7 9 9 10 9 8 9 12 15 14 11 10 10 11 13 13 10 6 7 10 12 11 10 8 6 2 354 346
309 306 304 303 308 312 310 308 310 316 322 330 341 350 357 2 2 1 1 1 1 1 1 1 2 3 3 2 2 2 1 0 359 358 359 360 0 1 2 1 0 359 359 359 359 359 358 358 359 360 0 360 359 360 2 3 4 6 8 9 9 10 9 8 10 14 15 14 12 9 10 12 14 12 9 10 11 11 12 12 11 7 2 358 356
310 304 302 304 308 310 306 305 308 313 320 329 340 351 357 357 356 355 355 356 356 356 357 358 359 0 1 1 2 2 1 0 359 359 0 1 1 1 1 1 0 359 360 0 359 358 357 358 359 360 1 1 0 1 3 4 4 5 7 8 9 10 10 9 9 11 13 15 14 11 9 11 13 12 10 10 10 11 13 15 14 11 7 2 356
310 305 302 303 307 306 303 301 304 309 317 326 335 344 348 347 349 349 350 350 350 351 352 354 356 357 358 360 1 1 1 0 360 0 1 1 1 1 1 0 360 0 1 1 359 358 357 358 359 1 2 3 2 2 3 5 5 5 6 7 8 9 10 10 9 9 11 13 14 12 10 10 12 12 12 12 11 10 14 18 17 14 12 10 4
309 306 302 301 303 303 299 297 300 305 312 319 323 327 332 336 339 342 343 344 345 346 349 351 352 354 357 358 360 0 0 0 0 0 1 2 2 1 0 360 360 0 0 360 359 358 358 358 359 1 3 3 3 3 4 5 6 5 5 6 8 9 10 10 9 9 10 11 12 12 11 10 11 11 12 12 11 12 16 20 19 17 17 17 15
308 306 301 298 299 299 295 292 295 299 305 309 309 312 320 327 331 335 338 340 341 343 346 347 349 352 355 357 359 360 360 0 1 0 1 2 2 1 360 359 360 359 359 359 359 359 358 358 359 1 3 4 4 4 4 5 6 6 5 5 6 8 9 9 10 11 11 9 10 11 11 10 10 11 10 9 9 13 19 20 18 18 20 18 15
305 305 300 294 293 294 292 289 289 293 298 301 303 309 316 322 328 332 335 338 340 342 345 346 347 349 353 356 358 360 360 0 0 0 1 2 2 1 360 359 359 358 358 359 0 359 358 359 360 1 3 4 4 4 4 5 5 5 5 5 5 6 8 9 10 11 10 8 7 10 11 10 10 12 12 9 9 16 23 23 19 20 23 20 14
300 301 298 292 288 289 289 286 284 287 291 294 300 309 316 321 327 332 335 340 344 346 346 346 346 348 351 354 357 359 360 0 360 360 1 1 2 1 0 359 358 358 358 359 0 359 359 359 360 1 3 3 4 4 5 5 5 5 5 5 5 5 6 8 10 11 9 6 6 8 10 9 9 11 13 11 11 18 28 30 25 24 27 24 17
294 296 296 291 285 284 285 283 281 281 284 288 296 305 313 320 325 330 336 344 350 350 348 346 346 347 350 354 356 357 359 360 359 359 360 0 1 2 1 359 357 357 358 359 359 359 359 359 360 1 3 3 3 4 5 4 4 5 6 6 6 6 6 7 9 10 9 7 6 8 9 8 9 11 12 12 12 18 28 33 30 28 28 25 21
288 290 291 289 283 280 281 280 278 277 278 282 290 299 307 314 319 325 332 340 347 349 349 348 347 348 350 353 354 356 358 358 358 358 359 360 1 2 0 358 357 357 357 358 358 359 359 359 360 2 3 3 3 4 4 4 4 4 5 6 6 6 6 7 8 9 8 7 8 9 8 7 8 10 11 11 12 15 20 23 24 23 20 18 19
282 284 287 287 282 277 277 278 276 274 275 277 283 292 299 305 311 317 322 329 338 344 346 347 346 347 350 352 352 354 356 357 356 356 357 359 0 1 360 358 357 356 357 357 357 358 358 359 0 2 3 4 3 3 4 4 4 4 5 6 6 6 6 7 8 8 6 7 9 10 8 7 7 10 11 12 12 12 11 11 12 12 9 9 15
277 279 282 283 280 275 274 275 274 272 272 274 278 285 292 296 301 309 315 321 330 338 342 343 343 345 348 350 351 352 354 355 355 355 356 358 359 359 358 357 356 356 356 356 357 357 358 359 0 2 3 4 4 3 3 4 4 4 5 5 5 6 7 8 8 7 5 5 9 11 9 6 6 9 13 15 15 12 8 4 5 6 5 8 12
273 274 276 278 278 275 272 272 272 272 272 273 276 280 286 289 292 300 309 316 325 333 338 339 340 341 345 348 350 351 353 354 353 353 354 357 358 357 356 356 356 355 355 356 356 356 357 359 0 1 2 3 4 4 3 3 3 4 5 5 5 7 8 8 8 7 5 4 7 10 11 8 7 8 12 16 18 16 10 7 7 5 3 6 10
269 270 271 274 275 273 270 268 270 271 271 271 273 276 280 283 286 292 302 312 320 328 334 337 337 337 340 344 347 350 352 353 353 353 353 355 356 355 354 354 355 355 355 355 356 356 356 358 0 2 2 3 3 4 4 4 4 4 4 4 5 7 8 8 8 7 6 5 6 9 10 10 10 10 11 13 18 19 16 13 15 14 9 5 5
266 265 267 270 271 271 268 267 268 269 269 270 272 274 276 279 282 287 295 305 314 322 331 335 335 335 336 338 342 347 351 352 352 352 352 353 353 352 352 352 354 354 354 354 355 355 356 358 0 2 2 2 3 3 4 3 3 3 4 4 5 6 7 7 7 7 7 6 8 9 9 10 12 13 12 12 17 20 20 20 21 21 18 13 6
264 262 263 266 268 268 267 266 265 266 267 269 271 272 274 277 279 283 290 298 307 316 325 331 334 335 336 336 336 340 345 349 350 351 350 350 350 350 350 351 353 353 353 353 354 355 355 357 360 2 2 1 2 3 3 3 3 3 3 4 4 5 6 7 7 7 7 7 9 10 9 9 12 14 14 14 16 18 20 23 24 23 23 22 16
262 260 259 262 264 265 266 264 263 263 266 268 269 271 273 275 278 281 286 292 300 309 319 324 329 334 338 339 337 337 340 344 347 348 348 347 347 347 348 350 351 352 352 352 353 353 354 356 359 1 2 2 2 3 3 3 3 3 3 3 4 4 5 6 6 6 6 8 10 11 10 10 11 12 14 16 17 16 18 22 25 24 25 24 21
259 256 256 258 260 262 262 263 262 262 264 266 267 269 271 273 276 279 283 287 294 303 312 318 322 329 337 341 340 338 337 339 342 345 345 345 345 345 346 348 350 350 351 351 351 352 353 354 357 0 2 2 2 3 3 2 2 3 2 2 3 3 4 5 6 6 6 7 10 11 12 12 11 11 12 15 18 18 17 19 23 25 26 25 24
256 253 253 255 257 258 259 261 262 262 262 263 265 266 268 270 273 277 280 283 289 298 306 313 318 325 334 340 341 338 336 336 338 340 341 341 342 343 344 346 348 349 349 349 350 350 352 353 355 359 1 2 2 3 3 2 2 2 2 2 2 3 3 5 5 6 6 7 9 11 12 12 11 10 10 13 16 18 17 17 19 22 25 24 24
253 251 251 253 254 255 258 260 260 260 259 259 261 263 265 268 270 273 275 279 284 293 302 309 314 321 331 338 338 336 333 333 333 335 337 339 340 341 343 344 346 347 347 348 348 349 350 352 354 356 359 1 3 3 3 2 1 2 2 2 2 2 3 4 5 5 5 6 8 10 12 12 11 11 11 12 14 16 17 17 17 19 22 23 23
250 249 249 251 252 253 255 256 257 258 258 258 260 262 263 265 267 269 270 274 280 288 297 304 310 317 326 333 335 334 333 331 330 332 335 337 339 340 341 342 344 345 345 346 347 348 349 350 352 354 356 359 2 4 3 2 1 1 2 2 2 2 3 4 4 4 5 6 7 9 10 11 12 12 12 13 13 14 15 16 16 17 19 20 21
249 248 249 249 250 251 252 253 255 256 257 258 260 260 260 261 263 264 266 270 277 284 291 298 306 313 321 326 330 333 332 329 328 329 331 333 336 338 340 340 341 342 343 344 345 347 347 348 351 353 354 357 1 3 3 2 1 1 2 2 2 2 3 3 3 3 4 5 7 9 9 11 12 13 13 14 14 13 13 14 15 17 18 18 19
Height
3146 3145 3145 3144 3144 3143 3143 3142 3141 3140 3139 3138 3137 3136 3134 3133 3131 3130 3128 3127 3125 3123 3122 3120 3118 3116 3114 3112 3110 3108 3106 3104 3101 3099 3096 3093 3091 3088 3085 3083 3080 3077 3074 3071 3068 3065 3062 3059 3055 3052 3048 3045 3042 3038 3034 3030 3026 3023 3019 3016 3013 3009 3005 3002 2997 2994 2995 2994 2990 2988 2986 2982 2980 2978 2975 2973 2972 2972 2972 2971 2970 2968 2968 2968 2969
3147 3146 3145 3144 3144 3143 3143 3142 3141 3140 3139 3137 3136 3135 3133 3132 3131 3129 3128 3126 3124 3123 3121 3119 3117 3115 3113 3111 3109 3106 3104 3102 3099 3096 3094 3091 3088 3086 3083 3080 3077 3075 3071 3068 3065 3062 3058 3055 3051 3048 3044 3040 3037 3033 3029 3025 3021 3018 3014 3010 3007 3004 2999 2996 2993 2988 2988 2988 2986 2983 2981 2978 2975 2973 2970 2968 2966 2964 2963 2963 2963 2962 2961 2961 2961
3147 3146 3145 3144 3144 3143 3143 3142 3140 3139 3138 3136 3135 3134 3133 3132 3130 3129 3127 3126 3124 3122 3120 3119 3116 3114 3112 3110 3107 3105 3102 3099 3097 3094 3091 3088 3086 3083 3080 3078 3074 3072 3069 3065 3062 3058 3054 3051 3047 3043 3039 3035 3032 3028 3023 3020 3016 3012 3008 3004 3000 2998 2994 2990 2987 2984 2982 2982 2980 2976 2974 2972 2970 2968 2965 2962 2960 2957 2954 2954 2955 2955 2955 2954 2954
3146 3146 3145 3145 3144 3143 3142 3141 3140 3139 3137 3136 3134 3133 3132 3131 3129 3128 3127 3125 3123 3121 3119 3117 3115 3113 3111 3108 3105 3102 3100 3097 3094 3092 3089 3086 3084 3081 3078 3075 3071 3068 3065 3061 3057 3053 3049 3046 3042 3038 3034 3030 3026 3023 3019 3015 3011 3007 3004 3000 2996 2993 2990 2986 2983 2980 2977 2975 2974 2971 2968 2966 2964 2961 2959 2956 2953 2950 2948 2946 2945 2946 2947 2946 2946
3146 3146 3145 3145 3144 3143 3142 3141 3139 3138 3136 3135 3134 3133 3132 3130 3129 3127 3126 3124 3122 3120 3118 3116 3114 3111 3109 3106 3103 3100 3098 3095 3092 3089 3087 3084 3081 3078 3075 3072 3068 3065 3061 3057 3053 3049 3045 3041 3037 3033 3029 3026 3022 3019 3015 3011 3007 3004 3000 2996 2993 2990 2986 2983 2980 2976 2973 2970 2968 2966 2963 2960 2958 2956 2952 2949 2946 2944 2942 2939 2937 2936 2937 2938 2939
3146 3146 3145 3144 3143 3142 3141 3140 3139 3137 3136 3134 3133 3132 3131 3130 3128 3126 3125 3123 3121 3119 3117 3115 3112 3110 3107 3104 3101 3099 3096 3093 3090 3088 3085 3082 3079 3076 3072 3069 3065 3062 3058 3054 3050 3046 3042 3037 3034 3030 3026 3022 3019 3015 3011 3007 3003 3000 2996 2993 2990 2987 2983 2980 2976 2973 2969 2965 2963 2961 2958 2955 2952 2950 2947 2943 2940 2937 2934 2933 2931 2930 2929 2929 2931
3146 3145 3144 3143 3142 3141 3140 3139 3138 3136 3135 3134 3133 3132 3130 3129 3127 3125 3124 3122 3120 3118 3116 3113 3111 3108 3105 3102 3100 3097 3094 3091 3089 3086 3083 3080 3077 3074 3070 3067 3063 3059 3055 3052 3048 3044 3040 3035 3031 3027 3023 3019 3015 3011 3007 3003 3000 2996 2993 2990 2987 2983 2980 2977 2973 2969 2966 2962 2959 2956 2954 2951 2947 2944 2941 2938 2935 2932 2928 2925 2924 2924 2923 2922 2923
3145 3144 3143 3142 3141 3140 3139 3138 3137 3136 3135 3133 3132 3131 3129 3128 3126 3124 3123 3121 3119 3116 3114 3112 3109 3106 3104 3101 3098 3095 3092 3089 3087 3084 3081 3078 3075 3072 3069 3065 3061 3058 3054 3050 3046 3042 3038 3033 3029 3024 3020 3016 3012 3008 3004 3000 2997 2993 2990 2987 2984 2980 2977 2974 2970 2966 2962 2959 2955 2952 2949 2946 2943 2939 2936 2933 2929 2927 2924 2919 2916 2916 2917 2917 2917
3144 3143 3142 3141 3140 3139 3138 3137 3136 3135 3134 3132 3131 3130 3128 3127 3125 3123 3121 3120 3118 3115 3113 3110 3107 3105 3102 3099 3096 3093 3091 3088 3085 3082 3079 3076 3073 3070 3066 3063 3059 3056 3052 3048 3044 3040 3035 3031 3027 3022 3018 3014 3010 3006 3002 2997 2994 2990 2987 2984 2981 2978 2974 2971 2967 2963 2959 2955 2951 2948 2945 2942 2938 2934 2930 2927 2924 2921 2919 2915 2911 2909 2909 2910 2911
3143 3142 3141 3140 3139 3138 3137 3137 3136 3134 3133 3131 3130 3129 3127 3125 3123 3122 3120 3118 3116 3113 3111 3108 3105 3103 3100 3097 3094 3091 3089 3086 3083 3080 3077 3074 3071 3067 3064 3060 3056 3053 3049 3046 3042 3038 3033 3029 3025 3020 3016 3013 3009 3004 3000 2996 2991 2987 2984 2980 2977 2974 2971 2967 2964 2960 2956 2952 2948 2944 2941 2937 2933 2929 2925 2922 2918 2914 2912 2908 2905 2903 2902 2902 2904
3141 3141 3140 3139 3138 3137 3137 3136 3134 3133 3131 3130 3129 3127 3126 3124 3122 3121 3119 3117 3114 3112 3109 3106 3104 3101 3098 3095 3092 3090 3087 3084 3081 3078 3075 3071 3068 3065 3062 3058 3054 3050 3047 3043 3039 3035 3031 3027 3023 3019 3014 3010 3006 3002 2998 2993 2990 2986 2982 2978 2974 2971 2968 2964 2961 2957 2953 2949 2945 2940 2936 2932 2928 2925 2920 2917 2913 2908 2905 2902 2899 2897 2895 2895 2897
3140 3139 3138 3137 3137 3136 3135 3134 3133 3131 3130 3129 3128 3126 3124 3123 3121 3119 3117 3115 3112 3110 3107 3105 3102 3099 3096 3094 3091 3088 3085 3082 3079 3076 3072 3069 3066 3063 3060 3056 3052 3049 3045 3041 3037 3033 3029 3025 3021 3017 3012 3008 3003 3000 2996 2991 2987 2983 2980 2976 2972 2968 2965 2961 2958 2954 2950 2946 2941 2937 2933 2929 2925 2922 2917 2912 2908 2903 2898 2896 2893 2891 2889 2889 2891
3139 3138 3137 3136 3136 3135 3134 3133 3131 3130 3129 3127 3126 3124 3123 3121 3119 3117 3115 3113 3110 3108 3105 3103 3100 3098 3095 3092 3089 3087 3083 3080 3077 3074 3071 3068 3065 3062 3058 3054 3051 3047 3043 3039 3035 3031 3027 3023 3019 3015 3010 3005 3001 2997 2993 2989 2985 2981 2977 2974 2970 2966 2963 2959 2956 2953 2948 2944 2939 2935 2931 2926 2922 2918 2914 2909 2904 2898 2894 2891 2888 2886 2884 2884 2886
3137 3137 3136 3135 3134 3133 3132 3131 3129 3128 3127 3126 3124 3123 3121 3119 3117 3115 3113 3110 3108 3106 3103 3101 3099 3096 3094 3091 3088 3085 3082 3079 3076 3073 3070 3067 3064 3060 3057 3053 3049 3045 3041 3037 3033 3029 3025 3021 3017 3012 3008 3003 2999 2995 2991 2987 2983 2979 2975 2971 2968 2965 2961 2957 2954 2950 2947 2942 2937 2933 2929 2924 2920 2915 2911 2906 2901 2895 2891 2887 2884 2882 2880 2880 2882
3136 3135 3134 3133 3132 3131 3130 3129 3127 3126 3125 3124 3123 3121 3119 3117 3115 3113 3111 3109 3106 3104 3102 3099 3097 3095 3092 3090 3087 3084 3082 3079 3076 3073 3069 3066 3062 3059 3055 3052 3048 3044 3041 3036 3032 3027 3023 3019 3015 3011 3006 3001 2997 2992 2988 2984 2980 2976 2972 2969 2966 2962 2959 2955 2951 2947 2944 2940 2936 2932 2927 2923 2919 2914 2909 2904 2899 2894 2889 2884 2881 2879 2877 2877 2878
3134 3133 3132 3131 3130 3129 3128 3127 3126 3125 3124 3122 3121 3119 3117 3115 3113 3111 3109 3107 3104 3102 3100 3098 3096 3093 3091 3089 3086 3083 3081 3078 3075 3072 3068 3065 3061 3058 3054 3051 3047 3043 3039 3035 3030 3026 3022 3017 3013 3009 3004 2999 2995 2990 2986 2982 2978 2973 2970 2966 2963 2960 2957 2954 2950 2946 2942 2939 2935 2930 2925 2922 2918 2913 2908 2902 2896 2891 2887 2883 2879 2876 2875 2875 2876
3132 3131 3130 3129 3128 3127 3126 3125 3124 3123 3122 3121 3119 3117 3115 3113 3111 3109 3107 3105 3102 3100 3098 3096 3094 3092 3089 3087 3085 3082 3080 3077 3074 3071 3067 3064 3060 3057 3053 3050 3046 3042 3038 3034 3029 3024 3020 3016 3012 3007 3003 2998 2993 2989 2984 2980 2975 2971 2967 2963 2960 2957 2954 2952 2949 2945 2941 2937 2933 2929 2924 2921 2918 2913 2907 2900 2893 2888 2885 2881 2878 2875 2874 2873 2875
3130 3129 3128 3128 3126 3125 3124 3123 3122 3121 3120 3119 3117 3115 3114 3112 3109 3107 3105 3103 3101 3099 3097 3095 3092 3090 3088 3086 3084 3081 3079 3075 3072 3069 3066 3062 3059 3055 3052 3048 3045 3041 3037 3033 3028 3024 3019 3015 3010 3006 3001 2997 2992 2987 2983 2978 2973 2969 2964 2960 2957 2955 2951 2948 2945 2942 2938 2935 2932 2929 2924 2921 2917 2913 2907 2899 2891 2887 2883 2880 2877 2875 2874 2873 2875
3128 3127 3127 3126 3125 3124 3123 3122 3121 3120 3118 3117 3115 3113 3112 3110 3107 3105 3103 3101 3099 3097 3095 3093 3092 3089 3087 3085 3082 3080 3077 3074 3070 3067 3064 3060 3057 3054 3050 3047 3043 3040 3036 3032 3027 3023 3018 3014 3009 3005 3000 2996 2991 2986 2981 2976 2972 2967 2962 2958 2955 2952 2948 2944 2940 2937 2934 2932 2930 2927 2923 2919 2916 2912 2907 2900 2892 2887 2884 2881 2878 2876 2875 2875 2877
3127 3126 3125 3124 3123 3122 3121 3120 3119 3118 3116 3115 3113 3112 3110 3108 3106 3104 3102 3100 3098 3096 3094 3093 3091 3089 3086 3084 3081 3078 3075 3072 3069 3066 3062 3059 3056 3053 3049 3045 3042 3038 3034 3030 3026 3022 3017 3013 3008 3003 2999 2994 2990 2985 2980 2976 2971 2966 2961 2957 2953 2949 2946 2943 2940 2936 2933 2930 2928 2925 2922 2918 2915 2912 2907 2901 2895 2890 2886 2883 2881 2879 2878 2879 2882
3125 3124 3123 3122 3121 3120 3119 3118 3117 3116 3115 3113 3111 3110 3108 3106 3104 3102 3100 3098 3096 3095 3094 3092 3090 3087 3085 3082 3080 3077 3074 3070 3067 3064 3061 3058 3054 3051 3047 3044 3040 3036 3032 3028 3024 3021 3016 3012 3007 3002 2998 2993 2989 2984 2980 2975 2971 2966 2962 2957 2953 2949 2945 2943 2940 2937 2933 2930 2927 2925 2921 2918 2915 2912 2908 2903 2898 2893 2890 2887 2885 2883 2883 2885 2887
3123 3122 3121 3120 3120 3119 3118 3117 3116 3115 3113 3111 3110 3108 3106 3105 3103 3101 3099 3097 3096 3094 3093 3091 3088 3086 3084 3081 3078 3075 3072 3069 3066 3063 3060 3056 3053 3050 3046 3042 3039 3035 3031 3027 3024 3019 3015 3011 3006 3001 2996 2992 2988 2984 2980 2976 2971 2967 2963 2959 2955 2951 2947 2944 2940 2937 2933 2930 2927 2925 2921 2916 2914 2911 2907 2904 2900 2896 2893 2891 2888 2888 2888 2888 2889
3121 3120 3120 3119 3118 3117 3116 3116 3115 3113 3112 3110 3108 3107 3105 3103 3101 3100 3098 3097 3095 3093 3092 3090 3088 3085 3083 3080 3077 3075 3072 3069 3066 3062 3059 3056 3052 3049 3045 3041 3037 3034 3030 3026 3023 3019 3015 3010 3006 3001 2996 2992 2989 2985 2980 2976 2972 2968 2964 2960 2956 2952 2948 2945 2941 2938 2934 2930 2927 2925 2921 2916 2912 2910 2907 2904 2901 2899 2897 2894 2892 2891 2891 2891 2891
3119 3119 3118 3117 3116 3116 3115 3114 3113 3112 3110 3109 3107 3105 3104 3102 3100 3099 3097 3096 3094 3092 3091 3089 3087 3084 3082 3079 3077 3074 3071 3068 3065 3062 3059 3055 3052 3048 3044 3040 3037 3033 3029 3026 3022 3018 3014 3010 3005 3001 2996 2993 2989 2985 2981 2977 2972 2968 2964 2961 2957 2953 2949 2946 2942 2938 2935 2931 2927 2924 2921 2917 2912 2909 2906 2904 2902 2901 2900 2898 2896 2895 2895 2894 2894
3118 3117 3116 3116 3115 3115 3114 3113 3112 3110 3109 3107 3106 3104 3103 3101 3100 3098 3097 3095 3093 3092 3090 3088 3086 3083 3081 3079 3076 3073 3071 3068 3064 3061 3058 3055 3051 3047 3044 3040 3036 3032 3029 3025 3021 3017 3013 3009 3005 3001 2997 2993 2989 2986 2982 2978 2973 2968 2965 2961 2957 2954 2950 2946 2942 2938 2935 2932 2928 2924 2921 2917 2914 2910 2907 2906 2904 2904 2903 2901 2900 2899 2898 2898 2897
3116 3115 3115 3114 3114 3113 3112 3112 3110 3109 3108 3106 3105 3103 3102 3100 3099 3097 3096 3094 3093 3091 3089 3087 3085 3083 3080 3078 3075 3073 3070 3067 3064 3061 3058 3054 3050 3047 3043 3039 3036 3032 3028 3025 3021 3017 3013 3009 3005 3001 2997 2994 2990 2986 2982 2979 2975 2970 2966 2962 2958 2954 2950 2946 2942 2939 2935 2932 2928 2924 2921 2918 2915 2912 2910 2908 2906 2905 2904 2902 2901 2901 2900 2899 2898
3115 3114 3114 3113 3113 3112 3111 3110 3109 3108 3106 3105 3103 3102 3101 3099 3098 3097 3095 3094 3092 3091 3089 3087 3085 3082 3080 3077 3075 3072 3069 3066 3063 3060 3057 3054 3050 3046 3043 3039 3036 3032 3028 3024 3020 3016 3012 3008 3004 3001 2998 2994 2991 2987 2983 2979 2976 2971 2967 2962 2958 2954 2950 2946 2942 2939 2936 2932 2929 2925 2922 2919 2917 2914 2912 2910 2907 2906 2904 2903 2902 2901 2901 2900 2899
3113 3113 3112 3112 3111 3111 3110 3109 3108 3106 3105 3104 3102 3101 3100 3098 3097 3096 3095 3093 3092 3090 3088 3086 3084 3081 3079 3076 3074 3071 3068 3065 3063 3060 3057 3053 3050 3046 3042 3038 3034 3031 3027 3023 3020 3016 3012 3008 3004 3002 2999 2996 2992 2989 2985 2980 2976 2971 2967 2963 2959 2955 2952 2948 2944 2940 2937 2933 2930 2927 2925 2922 2919 2916 2914 2911 2909 2906 2905 2904 2903 2902 2901 2900 2900
3112 3112 3111 3110 3110 3109 3108 3107 3106 3105 3104 3102 3101 3100 3099 3098 3097 3095 3094 3093 3091 3089 3087 3085 3083 3081 3078 3076 3073 3070 3068 3065 3062 3059 3056 3052 3048 3044 3040 3036 3032 3029 3026 3022 3019 3015 3011 3008 3005 3002 2999 2996 2992 2989 2985 2981 2976 2972 2968 2964 2960 2957 2953 2950 2946 2942 2938 2935 2932 2929 2926 2924 2921 2918 2915 2913 2910 2908 2906 2904 2903 2902 2902 2901 2900
3111 3110 3110 3109 3109 3108 3107 3106 3105 3104 3102 3101 3100 3099 3098 3097 3096 3095 3094 3092 3090 3088 3086 3084 3082 3080 3077 3075 3072 3069 3066 3064 3061 3057 3054 3050 3046 3042 3038 3035 3031 3028 3025 3022 3019 3015 3011 3008 3005 3002 2998 2995 2991 2988 2984 2980 2976 2972 2968 2964 2961 2957 2954 2950 2947 2943 2939 2936 2933 2930 2927 2924 2922 2919 2916 2914 2911 2909 2907 2905 2904 2903 2902 2901 2901
3110 3109 3108 3108 3107 3106 3105 3104 3104 3103 3101 3100 3099 3098 3097 3096 3095 3094 3093 3091 3089 3087 3085 3083 3081 3079 3077 3074 3072 3069 3066 3063 3060 3056 3053 3049 3045 3041 3038 3034 3031 3028 3025 3022 3018 3015 3012 3008 3005 3002 2998 2994 2991 2987 2983 2979 2975 2972 2968 2965 2961 2957 2954 2951 2947 2944 2940 2937 2934 2931 2928 2925 2922 2920 2917 2915 2912 2910 2908 2907 2905 2903 2902 2901 2900
3109 3108 3107 3106 3105 3104 3104 3103 3102 3101 3100 3099 3098 3097 3096 3095 3094 3093 3092 3090 3088 3086 3085 3082 3080 3078 3076 3073 3071 3068 3065 3062 3059 3055 3052 3048 3044 3041 3037 3034 3031 3029 3025 3022 3018 3015 3012 3008 3005 3002 2998 2994 2990 2987 2983 2979 2975 2972 2968 2965 2961 2958 2954 2951 2947 2944 2941 2938 2935 2932 2929 2926 2923 2921 2918 2915 2913 2911 2909 2908 2906 2905 2903 2902 2901
3107 3106 3105 3104 3103 3103 3102 3102 3101 3100 3099 3098 3097 3096 3095 3094 3093 3092 3091 3089 3087 3085 3084 3082 3079 3077 3075 3072 3070 3067 3064 3061 3058 3054 3051 3047 3044 3040 3037 3034 3031 3028 3025 3022 3019 3016 3012 3009 3005 3002 2998 2994 2990 2987 2983 2980 2976 2972 2969 2965 2962 2958 2955 2951 2948 2946 2942 2939 2936 2933 2930 2927 2925 2922 2920 2917 2914 2912 2910 2908 2907 2906 2905 2903 2902
3105 3104 3103 3103 3102 3101 3101 3100 3100 3099 3098 3097 3096 3095 3094 3093 3092 3091 3089 3088 3086 3084 3083 3081 3079 3076 3074 3072 3069 3066 3063 3060 3057 3053 3050 3047 3043 3040 3037 3034 3031 3027 3024 3022 3019 3016 3013 3009 3005 3002 2998 2994 2991 2987 2983 2980 2977 2973 2970 2967 2963 2960 2957 2953 2950 2947 2944 2941 2938 2935 2932 2929 2926 2924 2922 2919 2916 2914 2912 2910 2908 2906 2905 2904 2903
3104 3103 3102 3101 3100 3100 3099 3099 3098 3097 3096 3095 3094 3093 3093 3092 3090 3089 3088 3087 3085 3083 3081 3079 3077 3075 3073 3071 3068 3065 3062 3059 3056 3053 3049 3046 3043 3040 3037 3034 3030 3027 3025 3022 3019 3016 3013 3009 3005 3002 2998 2994 2991 2987 2984 2980 2977 2973 2970 2967 2964 2961 2958 2955 2951 2948 2945 2942 2939 2936 2933 2930 2928 2925 2923 2920 2918 2915 2913 2911 2909 2908 2906 2905 2903
3102 3101 3100 3099 3099 3098 3098 3097 3097 3096 3095 3094 3093 3092 3091 3090 3089 3088 3086 3085 3084 3082 3080 3078 3076 3074 3072 3069 3067 3064 3061 3058 3055 3052 3049 3045 3042 3040 3037 3034 3031 3028 3025 3022 3019 3016 3013 3009 3006 3002 2998 2995 2991 2988 2984 2981 2977 2974 2971 2968 2965 2962 2959 2956 2952 2949 2946 2943 2941 2938 2935 2932 2930 2927 2925 2922 2919 2917 2915 2914 2912 2910 2908 2906 2905
3100 3099 3098 3098 3097 3097 3096 3096 3095 3094 3093 3092 3091 3090 3089 3088 3087 3086 3085 3083 3082 3080 3078 3076 3074 3072 3070 3068 3065 3063 3060 3057 3054 3052 3048 3045 3042 3039 3036 3033 3031 3028 3025 3021 3019 3016 3013 3010 3006 3002 2999 2995 2992 2989 2985 2982 2978 2975 2972 2968 2965 2962 2959 2956 2953 2950 2947 2945 2942 2939 2936 2933 2931 2929 2927 2924 2922 2920 2918 2916 2915 2913 2911 2909 2907
3098 3097 3097 3096 3096 3095 3094 3094 3093 3092 3091 3090 3089 3089 3088 3087 3085 3084 3083 3082 3080 3078 3077 3075 3073 3071 3069 3067 3064 3062 3059 3056 3054 3051 3048 3045 3041 3038 3036 3033 3030 3028 3024 3021 3018 3016 3013 3010 3006 3003 2999 2996 2992 2989 2986 2982 2979 2976 2973 2969 2966 2963 2960 2957 2954 2952 2949 2946 2943 2940 2938 2935 2932 2930 2928 2926 2924 2922 2920 2918 2917 2915 2913 2911 2908
3096 3095 3095 3094 3094 3093 3092 3092 3091 3090 3089 3088 3088 3087 3086 3085 3084 3083 3081 3080 3079 3077 3075 3073 3072 3070 3067 3065 3063 3061 3058 3055 3053 3050 3047 3044 3041 3037 3035 3033 3030 3027 3024 3021 3018 3016 3013 3010 3007 3003 3000 2996 2993 2990 2986 2983 2980 2977 2973 2970 2967 2964 2961 2959 2956 2953 2950 2947 2944 2942 2939 2936 2934 2931 2929 2927 2925 2923 2921 2919 2918 2916 2914 2912 2910
3093 3093 3092 3092 3091 3091 3090 3089 3089 3088 3087 3086 3086 3085 3084 3083 3082 3081 3080 3079 3077 3076 3074 3072 3070 3068 3066 3064 3062 3059 3057 3054 3052 3049 3046 3043 3040 3037 3034 3032 3030 3027 3024 3021 3018 3015 3013 3010 3007 3004 3000 2997 2993 2990 2987 2984 2981 2977 2974 2971 2968 2965 2962 2959 2956 2954 2951 2949 2946 2943 2940 2938 2935 2933 2930 2928 2925 2923 2922 2920 2919 2917 2915 2913 2911
3091 3090 3090 3090 3089 3088 3088 3087 3086 3085 3085 3084 3083 3083 3082 3081 3080 3079 3078 3077 3076 3074 3072 3071 3069 3067 3064 3062 3060 3058 3055 3053 3050 3048 3045 3042 3039 3037 3034 3032 3029 3027 3024 3021 3018 3015 3012 3010 3007 3004 3000 2997 2994 2991 2987 2984 2981 2978 2975 2971 2968 2966 2963 2960 2957 2954 2952 2949 2947 2944 2942 2939 2937 2934 2932 2929 2926 2924 2922 2921 2919 2917 2916 2914 2912
3088 3087 3087 3087 3086 3086 3085 3084 3083 3083 3082 3081 3081 3080 3080 3079 3078 3077 3076 3075 3074 3072 3071 3069 3067 3065 3063 3061 3059 3056 3054 3052 3049 3047 3044 3041 3039 3036 3034 3031 3029 3026 3024 3021 3018 3015 3012 3009 3006 3003 3000 2997 2994 2991 2988 2985 2982 2979 2975 2972 2969 2966 2963 2961 2958 2955 2953 2950 2948 2945 2943 2940 2938 2935 2933 2930 2928 2926 2923 2922 2920 2918 2916 2915 2913
3084 3084 3084 3084 3083 3083 3082 3081 3080 3080 3079 3079 3078 3078 3077 3077 3076 3075 3074 3073 3072 3071 3069 3068 3066 3064 3062 3060 3057 3055 3053 3050 3048 3046 3043 3040 3038 3036 3033 3030 3028 3026 3023 3021 3017 3014 3012 3009 3006 3003 3000 2997 2994 2991 2988 2985 2982 2979 2976 2973 2970 2967 2964 2961 2959 2957 2954 2951 2949 2946 2944 2942 2939 2936 2934 2932 2929 2927 2925 2923 2921 2918 2917 2915 2913
3081 3081 3080 3080 3080 3080 3079 3078 3077 3077 3076 3076 3075 3075 3075 3074 3073 3073 3072 3071 3070 3069 3067 3066 3064 3062 3060 3058 3056 3053 3051 3049 3047 3045 3042 3040 3037 3035 3032 3030 3027 3025 3022 3020 3017 3014 3011 3008 3005 3002 3000 2997 2994 2991 2988 2985 2982 2979 2976 2973 2970 2967 2965 2962 2960 2957 2955 2952 2950 2947 2945 2943 2940 2937 2935 2933 2930 2928 2926 2924 2921 2919 2917 2915 2914
3077 3077 3077 3077 3076 3076 3075 3075 3074 3074 3073 3073 3072 3072 3071 3071 3071 3070 3069 3068 3067 3066 3065 3064 3062 3060 3058 3056 3054 3052 3050 3048 3046 3043 3041 3039 3036 3034 3032 3029 3026 3023 3021 3019 3016 3013 3011 3008 3005 3002 2999 2997 2994 2991 2988 2986 2983 2980 2977 2974 2971 2968 2965 2963 2960 2958 2956 2953 2950 2948 2946 2943 2941 2938 2936 2933 2931 2929 2927 2924 2922 2920 2918 2916 2914
3072 3072 3072 3073 3073 3072 3072 3071 3071 3070 3070 3069 3069 3069 3068 3068 3067 3067 3066 3065 3065 3064 3063 3062 3060 3058 3056 3054 3052 3050 3048 3046 3044 3042 3040 3037 3035 3033 3031 3028 3025 3022 3020 3018 3015 3013 3010 3007 3005 3002 2999 2997 2994 2991 2988 2986 2983 2980 2977 2974 2971 2969 2966 2963 2961 2958 2956 2953 2951 2949 2946 2944 2941 2939 2937 2934 2932 2930 2928 2925 2923 2921 2919 2917 2915
3068 3068 3068 3068 3069 3068 3068 3068 3067 3067 3067 3066 3066 3066 3065 3065 3064 3064 3063 3063 3062 3061 3060 3059 3058 3056 3054 3052 3050 3048 3046 3045 3043 3041 3039 3036 3034 3032 3029 3027 3024 3022 3019 3017 3015 3012 3010 3007 3004 3002 2999 2997 2994 2991 2988 2986 2983 2980 2977 2975 2972 2969 2967 2964 2961 2959 2956 2954 2951 2949 2947 2944 2942 2940 2938 2936 2933 2931 2929 2927 2925 2923 2921 2919 2917
3063 3063 3064 3064 3064 3064 3064 3064 3064 3064 3063 3063 3063 3062 3062 3061 3061 3061 3060 3060 3059 3059 3058 3057 3055 3054 3052 3050 3048 3046 3045 3043 3041 3039 3037 3035 3033 3030 3028 3026 3023 3021 3018 3016 3014 3011 3009 3006 3004 3001 2999 2996 2994 2991 2988 2986 2983 2980 2978 2975 2972 2970 2967 2964 2962 2959 2957 2954 2952 2950 2947 2945 2943 2941 2939 2937 2934 2932 2930 2928 2926 2924 2922 2920 2918
3058 3059 3059 3060 3060 3060 3060 3060 3060 3060 3060 3059 3059 3059 3058 3058 3058 3058 3057 3057 3056 3056 3055 3054 3053 3051 3049 3048 3046 3045 3043 3041 3039 3037 3036 3033 3031 3029 3027 3025 3022 3020 3017 3015 3013 3010 3008 3006 3003 3001 2999 2996 2994 2991 2988 2986 2983 2981 2978 2975 2972 2970 2967 2965 2962 2960 2957 2955 2952 2950 2948 2946 2944 2942 2940 2937 2935 2933 2931 2929 2927 2925 2924 2921 2920
3053 3054 3055 3055 3056 3056 3056 3056 3056 3056 3056 3056 3056 3055 3055 3055 3055 3055 3054 3054 3053 3053 3052 3051 3050 3049 3047 3046 3044 3042 3041 3039 3037 3035 3034 3032 3030 3028 3025 3023 3021 3019 3016 3014 3012 3009 3007 3005 3002 3000 2998 2996 2993 2991 2988 2986 2984 2981 2978 2975 2973 2970 2968 2965 2963 2961 2958 2956 2953 2951 2949 2947 2945 2943 2940 2938 2936 2935 2933 2931 2929 2927 2925 2923 2921
3048 3049 3050 3051 3051 3052 3052 3052 3052 3052 3052 3052 3052 3052 3052 3052 3051 3051 3051 3051 3050 3050 3049 3048 3047 3046 3045 3043 3042 3040 3038 3037 3035 3033 3032 3030 3028 3026 3024 3022 3020 3018 3015 3013 3010 3008 3006 3004 3002 3000 2997 2995 2993 2990 2988 2986 2984 2981 2978 2976 2973 2971 2968 2966 2963 2961 2959 2957 2954 2952 2950 2948 2946 2943 2941 2940 2938 2936 2934 2932 2930 2928 2926 2924 2922